EN

Hourly Weather Alvaro Obregon

Today, 23 January, Saturday

Time Temperature Precipitation Wind Pressure Humidity
00:00 +14°C° 0 mm 0 mps 611 mmHg 66%
01:00 +14°C° 0 mm 0 mps 611 mmHg 66%
02:00 +13°C° 0 mm 0 mps 610 mmHg 67%
03:00 +13°C° 0 mm 0 mps 610 mmHg 68%
04:00 +12°C° 0 mm 0 mps 610 mmHg 68%
05:00 +12°C° 0 mm 0 mps 610 mmHg 69%
06:00 +14°C° 0 mm 0 mps 611 mmHg 63%
07:00 +15°C° 0 mm 0 mps 612 mmHg 57%
08:00 +17°C° 0 mm 0 mps 613 mmHg 51%
09:00 +21°C° 0 mm 0 mps 614 mmHg 42%
10:00 +24°C° 0 mm 0 mps 615 mmHg 33%
11:00 +27°C° 0 mm 0 mps 616 mmHg 24%
12:00 +29°C° 0 mm 1 mps 615 mmHg 24%
13:00 +29°C° 0 mm 1 mps 614 mmHg 24%
14:00 +29°C° 0 mm 2 mps 614 mmHg 24%
15:00 +27°C° 0 mm 2 mps 613 mmHg 28%
16:00 +26°C° 0 mm 2 mps 612 mmHg 33%
17:00 +24°C° 0 mm 2 mps 611 mmHg 38%
18:00 +21°C° 0 mm 2 mps 611 mmHg 44%
19:00 +19°C° 0 mm 2 mps 611 mmHg 50%
20:00 +18°C° 0 mm 1 mps 611 mmHg 56%
21:00 +16°C° 0 mm 1 mps 611 mmHg 58%
22:00 +16°C° 0 mm 1 mps 611 mmHg 60%
23:00 +15°C° 0 mm 1 mps 610 mmHg 63%

Tomorrow, 24 January, Sunday

Time Temperature Precipitation Wind Pressure Humidity
00:00 +15°C° 0 mm 1 mps 610 mmHg 63%
01:00 +15°C° 0 mm 1 mps 610 mmHg 64%
02:00 +14°C° 0 mm 1 mps 610 mmHg 64%
03:00 +14°C° 0 mm 1 mps 610 mmHg 66%
04:00 +12°C° 0 mm 0 mps 610 mmHg 67%
05:00 +12°C° 0 mm 0 mps 610 mmHg 69%
06:00 +14°C° 0 mm 0 mps 611 mmHg 63%
07:00 +15°C° 0 mm 0 mps 612 mmHg 57%
08:00 +17°C° 0 mm 0 mps 613 mmHg 52%
09:00 +20°C° 0 mm 0 mps 613 mmHg 44%
10:00 +25°C° 0 mm 1 mps 614 mmHg 37%
11:00 +28°C° 0 mm 1 mps 615 mmHg 30%
12:00 +28°C° 0 mm 2 mps 614 mmHg 29%
13:00 +28°C° 0 mm 3 mps 613 mmHg 28%
14:00 +28°C° 0 mm 4 mps 612 mmHg 27%
15:00 +26°C° 0 mm 4 mps 612 mmHg 30%
16:00 +25°C° 0 mm 4 mps 611 mmHg 33%
17:00 +22°C° 0 mm 3 mps 611 mmHg 35%
18:00 +20°C° 0 mm 3 mps 610 mmHg 43%
19:00 +18°C° 0 mm 2 mps 610 mmHg 50%
20:00 +16°C° 0 mm 1 mps 610 mmHg 57%
21:00 +15°C° 0 mm 1 mps 610 mmHg 59%
22:00 +14°C° 0 mm 1 mps 610 mmHg 61%
23:00 +14°C° 0 mm 1 mps 610 mmHg 63%

Day after tomorrow, 25 January, Monday

Time Temperature Precipitation Wind Pressure Humidity
00:00 +13°C° 0 mm 1 mps 610 mmHg 64%
01:00 +13°C° 0 mm 1 mps 610 mmHg 64%
02:00 +13°C° 0 mm 1 mps 609 mmHg 64%
03:00 +12°C° 0 mm 1 mps 609 mmHg 65%
04:00 +12°C° 0 mm 1 mps 609 mmHg 66%
05:00 +11°C° 0 mm 0 mps 609 mmHg 67%
06:00 +12°C° 0 mm 0 mps 610 mmHg 62%
07:00 +14°C° 0 mm 0 mps 611 mmHg 57%
08:00 +16°C° 0 mm 0 mps 612 mmHg 51%
09:00 +21°C° 0 mm 1 mps 613 mmHg 44%
10:00 +23°C° 0 mm 1 mps 613 mmHg 37%
11:00 +26°C° 0 mm 2 mps 614 mmHg 29%
12:00 +26°C° 0 mm 3 mps 613 mmHg 29%
13:00 +26°C° 0 mm 4 mps 612 mmHg 29%
14:00 +26°C° 0 mm 4 mps 612 mmHg 29%
15:00 +25°C° 0 mm 4 mps 611 mmHg 33%
16:00 +22°C° 0 mm 4 mps 610 mmHg 37%
17:00 +21°C° 0 mm 3 mps 610 mmHg 41%
18:00 +19°C° 0 mm 3 mps 610 mmHg 48%
19:00 +17°C° 0 mm 2 mps 610 mmHg 56%
20:00 +15°C° 0 mm 1 mps 610 mmHg 64%
21:00 +14°C° 0 mm 1 mps 610 mmHg 66%
22:00 +14°C° 0 mm 1 mps 610 mmHg 68%
23:00 +13°C° 0 mm 1 mps 610 mmHg 71%

26 January, Tuesday

Time Temperature Precipitation Wind Pressure Humidity
00:00 +13°C° 0 mm 1 mps 610 mmHg 70%
01:00 +13°C° 0 mm 1 mps 609 mmHg 69%
02:00 +12°C° 0 mm 1 mps 609 mmHg 69%
03:00 +12°C° 0 mm 1 mps 609 mmHg 70%
04:00 +11°C° 0 mm 1 mps 609 mmHg 71%
05:00 +11°C° 0 mm 1 mps 608 mmHg 72%
06:00 +13°C° 0 mm 1 mps 610 mmHg 64%
07:00 +15°C° 0 mm 1 mps 611 mmHg 56%
08:00 +16°C° 0 mm 0 mps 612 mmHg 48%
09:00 +20°C° 0 mm 1 mps 613 mmHg 40%
10:00 +23°C° 0 mm 2 mps 613 mmHg 32%
11:00 +25°C° 0 mm 3 mps 614 mmHg 24%
12:00 +26°C° 0 mm 3 mps 613 mmHg 24%
13:00 +26°C° 0 mm 4 mps 612 mmHg 23%
14:00 +26°C° 0 mm 4 mps 612 mmHg 23%
15:00 +25°C° 0 mm 4 mps 611 mmHg 26%
16:00 +24°C° 0 mm 3 mps 611 mmHg 28%
17:00 +21°C° 0 mm 3 mps 610 mmHg 31%
18:00 +19°C° 0 mm 2 mps 610 mmHg 37%
19:00 +17°C° 0 mm 2 mps 610 mmHg 43%
20:00 +14°C° 0 mm 1 mps 610 mmHg 49%
21:00 +14°C° 0 mm 1 mps 610 mmHg 51%
22:00 +13°C° 0 mm 1 mps 610 mmHg 52%
23:00 +13°C° 0 mm 1 mps 610 mmHg 54%

27 January, Wednesday

Time Temperature Precipitation Wind Pressure Humidity
00:00 +12°C° 0 mm 1 mps 610 mmHg 56%
01:00 +12°C° 0 mm 1 mps 610 mmHg 57%
02:00 +11°C° 0 mm 0 mps 609 mmHg 58%
03:00 +10°C° 0 mm 0 mps 609 mmHg 59%
04:00 +10°C° 0 mm 0 mps 610 mmHg 60%
05:00 +10°C° 0 mm 0 mps 610 mmHg 61%
06:00 +12°C° 0 mm 0 mps 611 mmHg 55%
07:00 +14°C° 0 mm 0 mps 612 mmHg 50%
08:00 +16°C° 0 mm 0 mps 613 mmHg 44%
09:00 +19°C° 0 mm 0 mps 614 mmHg 37%
10:00 +25°C° 0 mm 1 mps 615 mmHg 29%
11:00 +28°C° 0 mm 1 mps 616 mmHg 22%
12:00 +29°C° 0 mm 1 mps 615 mmHg 21%
13:00 +29°C° 0 mm 2 mps 615 mmHg 19%
14:00 +30°C° 0 mm 2 mps 614 mmHg 18%
15:00 +28°C° 0 mm 2 mps 613 mmHg 21%
16:00 +26°C° 0 mm 2 mps 613 mmHg 25%
17:00 +24°C° 0 mm 2 mps 612 mmHg 29%
18:00 +21°C° 0 mm 2 mps 612 mmHg 34%
19:00 +19°C° 0 mm 1 mps 612 mmHg 40%
20:00 +16°C° 0 mm 1 mps 612 mmHg 45%
21:00 +15°C° 0 mm 1 mps 612 mmHg 50%
22:00 +14°C° 0 mm 1 mps 612 mmHg 54%
23:00 +14°C° 0 mm 1 mps 612 mmHg 58%

28 January, Thursday

Time Temperature Precipitation Wind Pressure Humidity
00:00 +13°C° 0 mm 1 mps 612 mmHg 63%
01:00 +12°C° 0 mm 0 mps 611 mmHg 69%
02:00 +11°C° 0 mm 0 mps 611 mmHg 74%
03:00 +11°C° 0 mm 0 mps 611 mmHg 78%
04:00 +11°C° 0 mm 0 mps 611 mmHg 82%
05:00 +10°C° 0 mm 0 mps 611 mmHg 85%
06:00 +12°C° 0 mm 0 mps 613 mmHg 79%
07:00 +14°C° 0 mm 0 mps 614 mmHg 74%
08:00 +16°C° 0 mm 0 mps 615 mmHg 68%
09:00 +22°C° 0 mm 1 mps 616 mmHg 56%
10:00 +25°C° 0 mm 1 mps 617 mmHg 44%
11:00 +29°C° 0 mm 1 mps 618 mmHg 32%
Show more